RH
79 75 71 62 57 57 61 67 73 80 88 90 90 89 89 87 87 87 85 86 87 88 89 88 86 86 88 90 91 91 91 92 91 90 87 87 86 84 82 79 74 67 59 57 61 68 74 75 75 73 69 63 61 62 64 65 64 65 69 74 76 75 72 68 66 65 64 67 74 82 85 86 87 87 88 86 86 85 83 80 77 75 72 68 68 71 79 83 87 89 88 86 85 87 95 98 96 92 88 81 78 77 78
76 73 69 67 62 60 65 70 76 82 89 90 90 89 87 87 86 85 85 86 87 88 90 90 89 89 91 93 93 92 89 90 90 89 88 86 85 83 80 78 74 69 62 61 63 68 73 76 76 73 70 63 61 61 63 63 64 66 70 74 75 75 72 69 67 67 66 70 78 85 86 86 86 85 86 86 86 87 87 86 85 84 80 75 68 62 62 67 73 79 85 82 82 85 93 98 95 91 89 86 84 82 82
74 71 68 71 68 66 70 73 78 85 91 91 91 90 89 88 85 84 85 87 88 88 89 91 94 95 95 95 94 93 91 93 91 89 89 89 86 82 79 77 74 71 67 64 63 65 68 74 75 73 69 63 61 61 62 62 63 67 72 75 75 73 70 68 68 68 68 74 81 86 83 84 84 83 83 84 86 86 86 86 86 85 82 84 81 75 67 61 60 64 76 80 82 85 92 96 98 97 96 93 92 90 86
74 70 70 70 71 72 74 76 81 86 92 92 90 88 86 85 85 86 89 88 88 90 94 93 95 97 93 93 92 91 91 91 91 91 89 89 85 80 77 76 75 72 70 67 64 63 63 71 73 71 67 63 61 61 61 61 64 68 74 76 75 72 67 66 67 69 73 78 83 84 81 81 82 82 82 83 85 86 85 85 83 82 80 82 83 84 83 76 69 66 66 75 82 88 92 93 93 93 96 96 94 91 87
76 76 75 72 74 76 79 81 85 89 92 90 89 88 87 86 85 86 89 87 88 91 94 93 94 93 90 90 88 86 86 85 85 84 84 81 78 76 76 75 74 73 71 68 65 63 62 69 71 69 64 63 62 62 61 61 65 71 76 76 73 68 63 64 66 70 77 83 84 82 79 78 79 80 81 82 82 82 84 83 82 81 78 79 81 83 86 85 83 80 75 76 79 85 92 90 89 89 91 96 97 96 94
80 82 81 78 78 80 81 85 89 91 92 90 89 88 88 85 85 87 88 90 93 96 97 93 90 86 84 83 82 80 80 79 78 77 76 75 75 75 75 74 74 73 72 69 65 62 62 68 70 69 64 63 62 62 60 62 67 73 76 74 68 63 58 59 62 68 77 85 84 79 77 77 78 79 81 81 81 81 82 81 81 82 83 83 85 87 89 89 88 88 89 85 86 88 90 88 88 88 86 89 91 93 97
80 80 79 79 80 82 82 87 92 94 93 89 86 84 88 89 91 92 91 93 94 95 92 88 84 80 79 78 78 77 77 76 76 75 74 74 74 74 73 73 73 72 71 68 64 61 63 68 69 67 64 62 61 60 60 62 66 70 72 67 61 55 53 55 58 65 76 80 79 76 76 78 79 80 80 81 82 82 82 84 86 88 90 92 92 92 93 92 89 86 87 89 90 90 88 89 88 86 84 83 84 85 90
76 74 73 76 78 81 84 88 89 90 93 92 90 89 92 94 95 95 94 92 91 88 83 80 79 78 78 77 77 77 76 76 75 75 74 74 73 73 72 72 71 70 68 64 62 62 66 68 67 64 61 60 60 59 58 62 65 67 66 59 52 48 48 52 59 68 78 78 79 81 85 83 83 83 81 81 82 83 84 87 92 94 94 97 97 96 93 91 90 90 89 90 91 92 93 92 91 90 87 85 84 83 84
75 70 71 74 78 83 91 95 97 97 97 94 94 94 94 94 95 95 93 90 87 83 79 79 79 78 77 76 76 76 76 76 75 75 75 74 73 72 72 71 70 67 63 60 61 63 67 65 62 59 57 58 57 57 57 61 64 64 61 51 45 43 45 54 66 77 83 81 82 85 87 83 81 82 83 81 81 81 84 87 88 89 89 92 92 90 87 86 85 86 88 88 88 88 88 88 88 88 88 91 90 86 83
75 72 74 78 84 90 97 98 97 95 94 93 94 95 93 93 93 92 90 85 82 80 79 78 77 76 75 74 73 73 74 75 75 75 75 74 73 72 72 70 67 63 59 58 60 62 63 60 57 55 54 55 55 55 56 61 64 62 56 44 40 41 46 63 76 83 83 83 83 83 85 85 84 84 83 80 79 80 84 85 83 81 80 85 85 82 80 82 83 83 82 82 83 83 83 86 88 89 90 95 95 92 89
79 77 81 85 90 94 97 96 95 94 91 90 91 92 92 91 89 87 85 82 80 79 78 76 75 74 73 71 70 70 71 73 73 74 73 73 72 71 70 68 64 60 56 57 58 58 56 54 52 51 51 52 53 54 57 61 63 60 51 40 38 42 52 72 79 80 80 76 75 78 85 86 86 85 81 80 80 82 85 83 79 75 75 81 81 79 79 81 84 87 86 85 85 85 84 87 90 93 96 98 96 94 93
78 77 78 79 82 86 89 91 91 90 87 85 86 87 88 86 85 84 82 81 79 77 75 74 72 71 70 68 68 68 70 71 71 71 71 71 70 69 67 64 60 56 54 55 54 53 51 49 48 48 48 49 51 54 58 61 63 59 47 39 37 43 58 74 77 76 77 78 78 78 83 82 80 79 79 84 84 84 83 79 75 73 75 81 82 80 78 80 82 85 87 86 87 88 87 90 92 93 93 93 91 88 88
73 72 70 70 71 74 78 82 84 85 85 84 84 84 84 83 83 82 81 79 77 75 73 70 69 68 67 66 65 66 66 67 67 67 67 67 66 65 63 60 56 53 52 51 50 48 47 45 46 46 46 47 49 53 58 62 62 57 44 37 35 43 62 73 76 75 74 75 76 79 81 80 79 79 81 82 83 82 79 75 74 76 80 85 84 80 77 80 82 83 84 83 83 84 87 86 85 85 86 86 83 80 81
70 68 66 66 68 70 73 76 79 81 81 82 82 83 82 82 82 81 80 78 76 74 71 69 68 67 64 62 61 60 59 59 59 60 60 60 60 59 57 54 51 49 48 48 46 44 43 43 43 44 44 45 47 52 57 61 60 55 42 34 34 43 65 73 76 75 74 74 75 77 80 79 80 80 81 82 84 83 78 74 76 82 88 89 85 80 77 78 78 77 78 77 77 78 81 80 82 85 85 80 78 79 81
68 66 64 66 68 70 72 75 76 77 78 79 81 82 82 83 82 81 80 78 76 73 70 70 68 64 60 57 56 54 52 51 50 51 51 51 51 52 51 48 46 45 45 44 42 41 40 40 41 41 41 41 45 50 56 59 58 51 39 32 34 45 67 73 76 75 74 75 77 77 77 78 78 79 79 81 82 81 80 76 78 83 90 89 85 79 77 76 76 76 75 76 77 78 82 83 84 84 84 77 77 80 82
66 64 64 67 70 72 73 75 76 76 77 78 80 82 83 83 82 81 80 77 75 72 71 69 65 60 55 53 52 51 49 47 46 45 44 43 44 45 46 44 43 43 42 41 40 39 38 38 38 38 37 38 42 49 53 56 55 48 36 29 35 49 70 74 76 76 74 76 77 78 78 78 78 78 79 80 80 80 81 78 79 84 90 88 84 80 78 75 77 80 79 82 83 84 88 86 85 84 80 77 77 79 83
64 64 66 69 72 73 75 75 76 76 77 78 80 81 82 82 80 79 77 75 73 72 71 66 60 55 51 51 51 51 49 47 45 43 42 40 40 40 42 41 40 40 39 38 37 36 35 35 35 35 34 35 40 46 50 53 52 45 33 28 37 54 72 76 77 76 74 76 77 79 79 78 78 77 78 78 79 80 82 80 80 84 90 88 85 83 80 77 75 76 82 85 85 85 88 87 83 78 73 72 74 78 84
63 65 68 71 73 74 75 75 75 75 76 77 79 80 80 78 77 75 73 72 71 70 67 59 53 49 49 49 49 49 47 45 44 42 41 40 38 38 39 39 38 37 36 35 34 34 33 32 32 32 31 34 38 43 47 50 48 41 29 27 38 57 75 77 78 76 74 76 77 79 79 78 77 77 78 78 78 79 82 80 81 84 88 88 87 85 83 81 78 78 80 81 81 82 85 85 81 75 70 69 71 76 82
63 66 70 72 74 75 75 75 74 74 75 76 77 78 78 75 73 71 69 67 66 64 59 51 47 45 46 46 46 45 43 43 42 40 40 38 37 36 37 37 36 35 33 32 31 31 30 29 28 28 29 33 37 42 44 47 43 35 25 26 40 59 75 78 78 76 75 77 77 78 78 77 77 77 79 79 79 79 81 81 82 85 86 87 87 87 87 85 84 83 81 82 82 83 85 86 84 80 77 75 75 76 79
63 66 70 72 74 75 75 75 74 75 76 77 78 78 76 73 70 67 63 60 59 57 52 47 44 43 43 43 42 40 39 40 39 38 36 36 35 34 34 34 32 31 30 30 29 29 28 27 26 25 27 33 38 41 43 45 40 31 22 26 42 60 74 77 77 76 75 76 77 77 78 78 78 79 80 80 80 80 80 80 81 81 82 84 86 88 88 86 86 86 83 84 85 85 87 87 87 86 84 82 81 80 79
60 64 69 72 74 75 75 75 75 76 76 77 76 75 71 69 66 62 56 53 52 50 48 46 44 42 40 40 39 38 37 39 39 37 34 33 32 32 32 30 29 27 28 28 28 28 27 26 25 24 26 34 39 41 42 43 37 28 20 27 42 59 72 76 77 76 75 76 76 77 78 78 79 80 80 80 80 80 79 79 78 78 78 79 81 82 81 81 81 81 81 82 82 82 83 84 84 84 85 83 82 82 81
57 62 67 70 72 74 74 74 74 74 74 72 70 67 64 63 61 57 53 51 49 47 46 44 43 40 37 37 37 38 37 39 41 40 35 32 30 29 29 27 26 25 26 26 27 27 26 25 25 25 26 34 39 41 42 41 35 26 19 27 40 55 68 75 77 76 74 75 75 76 77 78 78 79 79 80 80 79 79 79 78 77 76 77 77 76 76 77 77 78 78 78 78 78 78 79 79 80 80 80 80 80 80
59 63 66 69 71 73 75 75 74 71 69 68 65 63 61 59 57 55 54 51 48 44 42 42 43 43 37 36 37 38 38 38 38 37 35 32 29 27 26 25 25 24 24 25 26 26 26 26 25 26 28 34 38 40 41 39 33 26 20 25 36 50 63 72 76 76 75 75 74 74 76 76 77 77 77 77 78 78 77 77 77 76 73 75 76 76 76 76 76 77 76 76 76 76 76 77 77 77 78 78 78 78 78
64 67 68 70 73 76 79 78 74 70 67 66 65 62 59 57 56 54 53 50 46 43 40 40 41 40 36 35 36 37 37 35 32 30 28 27 25 23 23 24 24 24 25 26 26 26 26 25 26 27 29 34 37 39 40 37 32 26 21 23 30 41 55 67 74 76 75 74 73 72 73 74 75 75 75 76 76 75 75 75 75 74 71 73 74 74 74 75 75 75 75 75 74 74 75 75 75 76 76 76 76 77 77
68 70 70 72 74 77 79 77 74 70 68 66 63 60 57 56 55 54 51 49 47 45 43 43 41 38 36 34 34 34 33 30 28 26 24 22 21 21 21 23 24 25 25 27 27 27 26 24 25 27 28 33 36 38 38 36 32 27 22 22 25 33 46 59 69 74 74 73 72 70 70 71 72 72 73 74 73 73 72 72 72 72 70 71 72 72 72 72 72 72 73 73 73 72 72 72 73 73 73 74 74 75 75
67 68 68 70 72 73 72 71 70 68 65 63 60 58 57 60 59 56 50 48 46 45 44 41 39 37 36 33 31 30 29 27 25 23 22 22 21 21 20 23 24 25 26 27 27 27 26 23 24 25 26 31 35 36 37 36 32 28 23 22 24 29 37 49 60 69 73 73 72 70 69 68 69 69 68 70 70 70 69 69 69 68 68 70 70 70 69 70 70 70 69 70 70 70 70 70 71 71 71 71 72 73 73
64 64 65 66 67 68 67 67 66 65 63 62 61 60 60 58 55 51 47 47 45 44 41 40 39 39 37 33 30 28 26 24 23 23 23 23 23 22 22 23 24 25 25 26 27 27 26 24 23 24 24 29 32 35 36 35 32 29 24 23 24 26 31 39 49 60 68 70 70 70 69 68 66 65 65 66 67 67 67 66 67 67 68 67 67 67 66 67 67 67 67 68 68 68 68 68 68 69 68 68 70 71 71
62 62 63 64 65 66 66 66 66 66 67 68 68 65 58 51 48 46 45 45 43 41 38 39 39 38 35 31 28 25 22 22 24 25 24 24 24 23 23 22 23 24 25 26 26 26 26 24 23 23 24 26 30 33 34 34 32 29 26 24 24 26 27 31 37 46 55 61 64 64 64 64 62 62 63 62 62 63 62 63 63 63 63 63 63 63 63 63 63 63 65 65 66 66 65 66 67 67 65 66 66 67 68
63 62 62 64 64 65 65 66 67 69 71 71 68 61 50 46 43 43 42 41 39 37 35 35 34 31 28 26 24 22 20 22 25 26 26 26 25 24 23 23 23 23 24 26 26 26 26 24 23 23 24 25 28 31 32 32 31 29 26 24 23 24 25 26 27 31 38 47 53 56 57 59 60 60 59 57 57 58 58 60 60 59 59 60 60 60 60 60 60 61 61 61 61 61 62 63 63 62 62 63 64 65 66
63 62 62 63 63 63 64 64 65 65 65 62 58 52 46 42 41 40 39 37 35 33 32 30 29 28 26 24 23 22 22 23 25 27 27 26 25 25 24 23 23 23 23 25 26 27 27 25 23 22 23 24 26 28 30 31 30 29 28 25 23 22 22 22 23 23 24 31 38 45 48 50 51 53 54 55 54 54 54 56 56 56 57 56 56 56 56 55 55 56 56 56 56 56 58 59 59 59 60 62 63 64 66
63 62 62 62 62 62 63 63 62 60 58 54 51 49 47 44 43 43 42 40 38 35 31 30 28 26 24 24 24 24 25 24 25 26 27 26 26 25 25 24 23 23 22 24 26 27 27 26 24 23 23 23 24 26 29 30 30 30 29 26 23 21 20 20 20 20 19 21 27 33 38 40 41 44 49 49 49 49 50 50 52 53 53 52 52 52 51 51 52 52 53 54 54 55 56 57 58 59 60 61 62 64 66
62 62 63 62 61 61 62 62 61 58 54 51 50 51 52 51 50 50 49 47 44 41 37 31 26 23 22 24 26 26 26 25 25 26 26 26 25 25 25 25 24 24 22 23 25 26 27 26 24 23 23 22 22 23 27 29 30 30 29 27 24 22 19 18 17 17 16 15 17 21 25 27 28 30 36 39 41 43 43 46 47 48 48 48 48 48 48 49 50 51 51 52 53 54 55 56 57 58 59 61 63 65 66
62 62 62 61 60 60 61 62 61 59 55 52 52 54 56 55 53 50 46 39 33 27 22 21 21 22 24 26 27 27 26 25 26 26 26 25 24 24 25 25 25 24 23 23 24 25 26 26 25 24 23 22 21 22 25 27 28 29 29 27 25 23 20 18 15 14 12 11 10 11 13 14 15 16 17 24 29 34 38 39 40 41 43 44 45 45 45 46 47 48 50 51 51 52 53 54 56 57 59 60 62 63 64
62 63 62 59 58 58 60 61 61 60 57 55 55 56 55 51 46 41 36 31 27 25 24 24 25 26 28 28 28 27 26 25 26 26 25 24 24 24 24 24 24 24 24 23 23 24 26 26 25 24 23 22 21 22 23 25 27 28 27 26 25 24 22 20 17 15 12 11 11 10 10 10 10 10 10 11 18 25 29 32 34 37 39 42 42 42 43 44 46 48 49 51 52 53 53 55 57 58 59 60 61 62 63
63 62 60 58 56 56 57 59 60 60 59 57 56 53 49 43 39 35 31 27 25 25 26 26 27 27 28 28 28 27 26 25 25 26 25 25 25 25 25 24 24 24 25 24 24 24 24 26 26 25 23 22 21 22 23 25 26 26 26 26 26 25 25 24 22 20 18 17 16 15 15 13 12 11 10 10 12 15 20 24 28 32 35 37 38 38 40 43 46 49 51 52 54 56 55 57 58 58 59 60 61 62 63
63 61 58 56 55 54 56 58 59 60 59 56 52 47 42 39 35 30 26 26 26 27 27 27 27 27 27 28 28 28 26 25 25 26 26 25 25 25 25 25 24 24 25 25 24 23 22 25 26 25 24 23 22 22 23 23 24 24 25 25 26 26 27 27 26 25 23 21 20 19 19 17 15 13 11 10 9 9 10 14 17 20 26 27 29 32 37 40 43 47 51 52 54 56 57 58 58 59 60 60 61 62 64
62 60 57 56 55 55 56 57 58 59 58 52 46 41 38 34 29 27 26 26 27 28 28 28 28 27 26 27 27 28 27 26 25 26 26 25 26 26 26 26 25 25 25 25 25 24 21 24 25 25 24 24 23 23 23 23 23 23 24 24 25 26 27 29 28 26 24 22 21 21 20 19 17 14 12 10 10 9 9 9 9 10 13 12 15 21 28 35 42 47 50 52 55 57 59 59 59 59 60 61 62 63 66
60 58 56 56 56 57 58 58 58 57 55 47 41 36 32 28 26 26 26 26 27 27 28 28 27 27 26 26 27 27 27 26 26 26 26 25 26 27 27 27 26 26 25 25 25 24 21 24 25 25 25 25 24 23 23 23 23 23 23 23 24 25 26 27 27 26 24 23 22 22 21 19 17 15 13 11 10 10 10 10 11 11 10 10 12 16 20 31 41 49 52 55 57 58 58 60 60 61 61 62 64 66 68
60 58 56 56 57 58 60 59 57 54 48 42 36 31 27 25 25 25 25 25 26 26 27 27 26 26 26 26 25 26 26 26 26 26 25 26 26 27 28 28 27 26 25 25 25 25 23 24 25 25 26 25 24 23 23 23 23 22 23 23 24 24 25 26 25 24 23 23 23 23 22 19 17 15 13 12 12 12 13 14 15 15 14 14 15 18 21 29 41 51 55 57 58 58 59 61 62 62 62 63 66 69 69
60 58 57 57 58 59 60 58 54 49 43 38 33 28 25 25 25 26 26 26 26 26 25 26 25 25 25 25 24 24 24 25 25 25 25 25 26 27 28 28 27 27 26 25 25 25 25 25 25 25 25 25 25 24 23 23 22 22 22 23 24 24 25 25 24 23 21 21 22 23 22 20 18 16 15 15 16 18 21 22 23 21 20 20 22 26 31 40 50 58 60 60 60 61 63 65 65 64 64 66 69 70 69
61 60 60 60 61 61 60 56 50 44 40 36 30 26 25 26 26 27 27 27 26 25 24 24 25 25 24 24 23 23 23 24 24 24 24 25 26 27 27 27 27 27 26 25 25 25 25 25 25 25 25 26 26 25 24 23 23 22 21 21 22 24 24 24 23 22 20 19 19 20 22 21 20 18 17 20 23 27 30 32 30 28 25 26 29 34 41 49 54 58 60 62 64 66 68 69 68 67 68 70 71 71 69
62 63 64 64 64 63 59 53 46 41 38 32 28 25 26 26 26 27 27 27 26 25 25 25 24 24 24 24 23 23 23 23 24 24 24 25 26 26 26 27 27 27 26 25 24 25 25 25 25 25 26 27 27 27 25 24 24 23 22 22 23 25 25 24 23 22 20 20 20 21 23 23 21 20 19 23 26 29 32 33 31 29 27 30 34 40 45 49 52 55 57 60 63 66 69 70 70 70 71 71 71 70 70
66 67 68 69 67 63 56 49 42 37 34 28 26 25 26 26 26 26 26 26 26 26 26 26 25 25 24 24 23 23 23 23 23 24 24 25 26 26 26 26 27 26 25 24 24 24 26 26 25 25 25 27 28 27 25 25 25 25 24 23 24 26 26 26 25 23 23 23 24 25 26 25 23 21 21 23 24 25 26 26 26 26 28 33 37 41 44 46 49 51 54 58 61 64 67 68 69 70 71 71 71 71 70
69 71 72 73 68 61 52 44 38 33 29 26 25 26 26 26 26 26 25 25 25 26 26 26 26 25 24 24 23 23 23 23 23 23 24 25 26 26 26 26 26 26 25 23 23 24 25 25 25 24 23 24 25 25 24 24 24 24 24 23 23 25 27 26 26 25 26 27 28 29 29 26 24 22 22 22 22 21 21 22 23 25 29 33 36 38 41 43 45 48 51 54 57 59 62 64 65 66 68 69 70 70 70
70 71 73 71 66 58 48 41 35 30 25 25 25 26 26 26 25 25 25 24 25 26 26 27 27 26 24 24 23 23 22 22 22 22 23 24 25 25 25 25 24 24 24 23 23 23 24 23 21 20 22 22 23 23 23 23 23 23 22 21 23 25 27 27 27 27 28 29 29 29 28 25 23 22 23 22 22 21 21 22 22 24 28 31 34 36 38 40 42 44 47 50 52 55 59 61 63 64 65 67 68 70 71
69 70 69 66 61 53 45 38 31 27 24 25 25 25 25 25 25 25 25 24 24 25 26 27 27 26 25 24 22 21 20 19 20 21 22 23 23 23 22 22 22 22 22 22 22 22 23 19 19 21 24 23 22 22 22 22 22 22 21 22 23 25 26 27 27 28 29 28 27 26 26 23 22 22 22 22 22 22 22 22 21 22 25 29 33 35 36 38 40 42 44 47 50 53 56 59 60 62 63 65 67 69 71
68 67 65 61 56 50 41 34 28 25 25 25 24 24 24 24 25 25 25 25 24 24 24 25 26 26 25 24 22 20 17 18 19 21 21 21 21 21 20 20 20 20 21 21 22 22 21 18 19 23 24 23 22 22 21 22 22 21 21 21 22 23 25 26 26 27 26 25 25 24 24 22 21 21 22 22 22 22 22 22 21 22 23 26 29 32 34 36 37 39 41 44 47 51 53 55 57 59 62 65 67 68 69
65 63 61 57 53 47 37 30 26 24 24 23 23 23 23 23 24 24 25 26 26 25 24 24 24 24 24 24 22 19 16 17 18 20 21 20 19 19 19 20 20 20 20 21 22 21 19 18 20 23 24 23 22 21 19 19 19 19 20 20 21 21 22 22 23 23 23 23 23 23 22 21 21 21 21 22 22 22 22 22 22 22 23 24 25 28 32 33 35 36 39 42 45 48 50 51 54 58 63 63 65 67 68
60 58 55 52 49 43 33 27 24 23 22 22 22 22 22 23 24 25 26 26 26 25 24 24 24 24 24 24 23 20 16 16 17 18 19 19 19 19 18 19 19 20 20 21 22 21 16 18 21 24 24 23 22 20 18 18 18 18 19 19 20 20 20 20 20 20 21 21 22 22 21 20 20 21 21 22 22 22 22 22 23 23 23 24 24 25 27 29 31 33 36 39 42 45 47 50 55 59 62 62 64 66 67
57 53 50 47 43 38 30 26 24 23 22 22 23 23 24 25 26 27 27 27 26 25 25 24 24 24 25 25 24 22 19 16 15 16 17 19 21 23 25 21 19 19 22 22 22 21 16 19 22 24 24 23 21 19 19 19 18 18 18 19 20 20 20 19 19 20 21 22 22 22 21 20 20 21 21 22 22 23 23 23 24 24 24 24 24 25 25 26 27 29 33 37 40 43 44 49 54 57 58 60 62 64 66
55 51 48 43 38 33 28 26 24 24 23 24 25 26 26 26 26 26 26 25 25 25 25 25 25 25 25 25 25 24 22 18 15 16 20 22 23 25 30 26 22 21 24 24 24 22 18 20 22 24 25 22 19 18 18 18 19 19 19 19 20 21 21 21 21 22 22 23 22 22 21 20 20 20 21 22 22 23 24 24 24 24 24 24 25 25 26 26 27 28 29 33 36 39 42 47 51 54 54 56 59 62 65
52 50 47 41 36 31 27 26 26 25 25 26 27 28 28 26 25 24 24 24 24 24 24 25 25 26 26 26 26 26 25 21 17 16 21 23 23 23 23 27 25 23 23 22 25 26 21 23 25 26 24 19 16 15 17 18 18 19 19 20 20 21 22 22 22 22 22 22 22 22 21 20 20 21 21 22 23 24 24 25 25 25 25 25 25 26 26 26 27 27 28 29 32 36 41 44 47 49 51 53 56 60 64
48 45 44 40 34 29 27 27 26 26 27 29 29 29 28 27 26 25 24 24 23 23 24 25 25 25 26 27 28 28 27 25 20 17 17 22 24 23 22 27 26 24 24 23 25 28 28 23 19 17 14 13 14 15 17 18 18 19 19 20 22 23 23 22 22 22 22 22 22 21 21 21 21 22 22 23 24 25 25 26 26 26 25 25 26 26 26 26 27 27 28 28 30 33 36 40 43 45 48 51 54 59 65
44 41 42 38 33 29 28 26 26 26 28 31 32 31 29 27 26 25 24 23 23 23 23 23 23 23 24 25 27 28 29 27 24 19 16 19 24 28 30 30 31 31 33 29 25 24 27 23 20 17 13 14 15 16 18 18 18 19 20 21 21 22 22 22 22 22 22 22 22 21 21 22 22 23 24 24 25 25 26 26 26 26 26 26 26 27 27 26 26 27 28 29 30 31 31 35 38 42 45 49 54 60 65
41 39 40 36 31 27 27 25 25 27 30 32 32 30 27 26 24 24 23 23 23 22 22 22 22 22 22 23 24 27 29 29 26 23 19 17 20 26 34 35 37 35 30 28 26 23 23 26 24 19 15 16 16 17 17 18 18 19 20 21 21 21 21 21 21 21 21 21 21 21 22 22 23 24 24 25 25 26 26 26 26 26 27 27 27 27 27 27 26 27 28 29 30 31 30 32 36 41 44 50 56 61 66
39 37 36 32 29 26 26 25 26 29 31 32 31 29 26 25 24 24 23 23 23 22 21 20 20 21 22 23 24 26 28 29 28 26 23 20 19 20 26 29 29 28 26 25 24 26 29 27 26 24 19 18 18 18 18 18 19 20 20 21 21 20 20 20 20 20 20 20 21 21 22 22 23 24 24 25 25 26 26 26 26 27 27 27 27 27 27 27 27 27 28 29 30 30 30 31 35 40 45 52 59 63 65
38 34 31 29 27 26 25 26 28 31 32 32 31 29 27 26 25 24 23 23 23 22 21 18 18 19 22 24 24 24 26 29 30 29 27 26 23 20 20 23 26 29 28 30 29 28 30 28 27 26 23 21 20 19 19 20 20 20 21 21 21 20 20 20 20 20 20 21 21 22 22 23 23 24 24 24 25 25 25 26 26 26 27 27 27 28 28 28 28 28 28 29 30 30 30 32 37 43 49 56 61 63 62
35 31 28 27 27 26 26 29 31 33 33 32 31 30 28 26 25 23 22 22 22 21 20 17 17 18 21 24 24 24 24 27 29 31 32 32 29 24 20 22 23 24 26 31 31 30 33 37 35 30 28 26 24 22 22 22 22 21 21 21 21 21 21 21 21 21 21 21 22 22 23 23 23 24 24 24 24 25 25 26 26 26 27 27 28 28 28 29 29 29 29 30 30 30 29 34 40 46 54 59 61 61 59
32 29 27 27 27 27 28 31 33 34 33 32 31 30 28 26 25 23 22 22 22 20 18 16 16 18 21 24 24 24 25 26 27 29 32 34 32 28 25 27 27 25 24 26 27 30 33 38 38 35 33 30 27 25 25 24 23 23 22 21 21 21 21 21 21 22 22 22 23 23 23 24 24 24 24 24 24 25 25 25 26 26 27 27 28 28 28 29 29 29 29 29 29 29 30 35 42 49 55 57 57 57 55
29 28 27 27 28 29 31 33 35 35 33 32 31 30 29 27 25 23 21 22 22 20 17 14 15 17 20 23 25 26 27 28 27 26 29 30 30 29 26 27 27 27 27 27 28 29 30 33 35 36 36 35 32 29 28 26 25 23 22 21 21 21 21 22 22 22 23 23 24 24 24 24 24 24 24 24 25 25 25 26 26 26 26 27 27 28 28 28 29 29 29 29 29 29 31 37 43 48 51 52 53 53 53
28 28 28 28 29 31 33 35 35 34 33 32 31 30 29 26 23 21 21 21 20 18 15 13 14 14 15 18 22 26 29 29 28 27 27 28 28 27 27 26 26 26 26 26 27 28 29 29 29 30 33 40 40 35 31 29 27 24 22 22 22 22 23 23 23 24 24 24 24 25 25 24 24 24 24 25 25 25 25 26 26 26 26 26 27 27 28 28 28 28 28 28 28 29 32 38 42 44 46 48 49 50 52
Wind_Speed
9 8 9 10 11 12 12 11 11 10 10 10 10 10 10 11 11 10 9 8 9 9 9 9 9 9 9 9 9 9 9 9 9 9 8 7 7 7 8 9 8 8 6 5 5 6 7 7 8 8 8 7 5 5 5 6 6 5 3 4 3 3 6 8 9 10 10 9 8 8 7 7 7 7 7 6 6 5 5 5 4 4 4 4 4 5 5 6 7 8 9 10 12 13 12 7 3 2 2 3 5 6 6
8 8 9 9 10 11 11 11 10 10 9 9 9 8 8 9 9 8 8 8 9 9 9 8 8 9 9 9 9 8 8 8 8 8 7 7 7 7 8 9 9 8 7 6 6 6 7 8 8 8 7 6 5 5 5 6 5 4 3 3 3 5 7 9 10 10 10 9 8 7 7 7 7 6 6 6 5 5 6 6 5 5 5 5 5 5 5 6 6 7 8 9 10 11 10 8 4 2 3 5 6 6 5
8 8 9 9 10 11 11 10 10 9 9 9 9 9 9 9 9 9 9 9 9 9 9 8 8 8 9 8 8 7 7 7 7 6 6 6 6 7 8 9 9 9 8 7 7 7 8 8 8 8 7 5 5 5 6 6 5 4 4 4 4 6 9 10 10 10 10 9 8 7 7 7 7 6 6 6 5 5 5 5 5 6 6 6 6 6 6 6 6 6 6 8 9 9 8 8 7 6 6 7 7 7 6
8 8 9 10 10 10 10 10 10 9 9 9 9 10 10 9 9 9 9 9 8 8 8 8 7 8 8 7 7 6 6 6 6 6 6 6 6 7 8 9 9 9 9 8 8 8 8 8 9 9 8 6 5 6 7 8 6 5 5 5 6 8 11 11 11 10 9 9 8 7 7 7 6 6 6 5 5 5 5 5 5 5 5 5 6 6 6 6 6 6 6 6 7 7 6 8 9 10 8 7 6 7 7
8 9 9 10 10 10 9 9 9 9 9 9 10 10 10 9 9 9 9 8 8 8 8 8 7 7 8 7 6 6 6 5 5 5 6 6 6 7 8 9 9 9 9 9 9 9 9 9 10 10 9 7 6 7 7 8 8 7 7 7 8 10 12 12 11 10 9 8 8 7 7 6 6 6 5 5 5 5 6 6 6 5 5 5 5 5 5 5 5 6 6 5 5 5 5 7 8 9 9 7 7 7 7
8 9 9 10 9 9 9 9 9 8 8 9 9 9 9 9 9 9 9 8 7 7 8 7 7 7 7 7 7 7 7 7 6 6 7 7 7 8 9 9 9 9 9 9 9 9 9 9 10 11 10 8 7 7 8 9 8 8 8 8 9 11 12 11 10 9 8 7 7 7 7 6 6 6 5 5 4 5 5 5 6 6 5 5 5 5 5 5 5 5 5 4 3 4 5 7 7 7 7 7 7 8 8
8 9 9 10 10 10 9 9 8 8 9 9 9 9 8 8 8 8 8 7 7 7 8 7 7 7 7 7 7 8 8 8 8 8 8 8 8 9 9 9 9 9 9 9 9 8 9 9 11 11 10 9 8 7 8 8 8 8 8 9 10 11 11 11 10 9 8 7 7 7 6 6 6 5 5 5 5 5 5 5 5 5 5 5 5 5 6 6 7 7 6 4 4 4 5 6 7 8 9 9 9 9 8
8 8 9 10 10 10 10 9 8 8 8 9 9 8 7 7 7 7 7 7 7 7 8 7 7 7 7 7 7 8 8 8 8 8 9 9 9 9 9 9 9 9 9 9 9 9 9 10 11 11 10 8 8 7 7 7 7 7 8 9 10 11 11 10 10 9 8 8 7 7 7 6 6 6 5 5 6 6 6 6 6 6 6 6 5 5 6 8 8 8 7 6 5 5 6 7 7 8 9 10 10 10 10
8 9 10 10 11 10 10 9 8 8 7 8 8 7 7 7 6 7 7 7 6 7 8 8 8 7 7 7 7 6 6 7 7 8 8 8 8 8 8 8 8 8 8 8 9 9 10 10 11 10 9 8 7 7 7 6 6 6 7 9 10 10 10 10 10 9 8 8 7 7 7 7 6 6 6 5 6 6 7 7 8 9 9 8 7 7 8 9 10 10 8 7 8 9 10 10 10 9 8 7 8 9 10
8 9 10 10 10 10 9 8 8 8 8 7 7 7 7 6 6 6 6 6 7 8 8 8 7 7 6 6 6 6 6 6 6 6 7 8 8 8 8 8 8 8 8 9 9 10 10 10 10 10 8 7 7 7 6 5 4 5 6 9 10 9 9 9 9 8 8 8 7 7 7 6 6 6 6 6 5 5 6 7 8 9 9 8 7 8 8 9 10 10 10 9 9 9 10 9 9 8 7 5 5 6 8
8 9 9 9 8 8 8 7 7 7 7 7 7 7 6 5 6 6 7 7 8 8 8 7 7 7 7 7 7 7 6 6 6 7 7 7 8 8 8 8 9 8 8 9 9 9 10 10 9 9 7 7 7 6 4 3 2 4 6 8 9 8 8 9 9 8 8 8 8 7 7 6 6 6 6 6 5 5 6 6 7 7 6 6 6 7 7 7 8 8 8 8 7 7 7 6 6 6 5 4 5 5 6
8 8 8 7 7 6 6 6 6 6 6 6 6 6 6 6 7 7 8 8 8 8 8 7 7 7 7 8 8 8 8 8 8 8 8 8 8 8 9 9 9 8 8 8 9 9 9 9 8 7 6 6 6 5 3 2 2 3 6 8 8 7 8 8 9 8 8 7 7 7 7 6 6 6 5 5 5 5 5 6 7 6 5 5 6 6 6 6 7 7 7 7 6 5 4 4 4 5 7 7 6 6 6
7 7 6 6 6 6 6 6 7 7 6 6 6 6 7 7 8 8 9 8 8 8 8 8 8 8 8 8 9 9 10 10 10 9 9 9 9 9 9 9 9 9 8 8 9 9 9 8 7 6 6 6 5 4 2 1 2 4 6 8 8 7 8 8 9 8 8 7 7 6 6 6 6 6 5 5 5 5 6 6 7 6 6 5 5 6 6 6 6 6 6 6 5 4 4 4 5 6 7 7 7 7 7
6 5 5 6 6 6 7 7 7 7 7 7 7 7 8 8 9 8 8 8 7 7 8 8 9 9 8 9 9 10 10 10 10 10 10 10 10 10 10 10 9 9 9 9 9 9 8 7 6 6 6 6 4 3 2 2 2 4 7 8 7 7 8 8 8 8 8 8 7 6 6 6 6 6 6 6 6 6 6 6 6 6 6 5 6 6 7 7 6 6 6 6 5 5 5 5 5 5 5 6 6 6 6
5 5 5 6 7 7 8 8 8 8 8 8 8 8 8 9 8 8 7 6 6 7 8 8 9 9 9 9 9 9 9 9 10 10 10 10 10 10 10 10 10 9 9 9 9 8 7 6 5 5 6 6 4 2 2 3 3 5 7 8 7 7 8 8 8 8 8 7 7 6 6 6 6 6 6 7 7 7 6 6 6 5 5 5 6 7 7 7 7 6 6 6 6 6 6 6 5 5 5 5 5 5 6
5 5 6 7 8 8 8 8 8 8 8 8 8 8 8 8 7 6 6 5 6 7 7 8 9 9 9 9 9 8 8 9 10 10 10 11 11 10 10 10 10 9 9 8 7 7 6 6 5 5 5 5 4 2 3 3 4 5 7 7 7 7 8 8 8 8 7 7 7 7 7 7 6 6 6 7 7 7 7 5 5 4 4 5 6 7 7 7 7 7 6 6 6 5 5 5 4 4 5 5 5 5 5
6 6 7 8 8 9 9 9 8 8 7 7 8 8 7 7 6 5 5 5 6 6 7 8 9 10 10 9 9 8 8 9 10 10 10 10 10 10 10 9 9 8 8 7 6 5 5 5 4 4 5 5 4 3 4 4 4 5 7 7 6 7 8 8 8 7 7 6 7 7 7 7 7 6 6 6 7 7 7 6 5 5 5 6 6 7 7 7 7 6 6 6 5 5 5 4 4 4 5 5 5 4 4
6 7 7 8 9 9 9 8 7 6 6 6 6 6 6 5 4 4 4 5 6 7 8 9 10 10 10 9 9 8 8 8 9 9 10 10 10 9 8 8 7 7 6 5 5 4 4 4 4 4 4 5 5 3 4 4 4 5 7 6 6 7 8 8 8 7 6 6 7 7 7 7 7 7 7 7 7 7 8 6 5 5 6 6 6 7 7 7 7 6 6 6 6 5 5 5 5 5 6 6 5 5 5
7 7 8 8 8 8 8 7 6 6 6 5 5 5 4 4 4 4 5 6 7 8 9 10 10 11 10 10 9 8 6 6 6 7 8 8 8 8 7 6 6 5 5 5 5 4 4 3 3 3 4 5 5 3 3 3 4 6 7 6 5 6 8 8 8 7 6 7 7 8 8 7 7 7 8 7 7 7 8 8 7 7 7 7 7 7 8 8 7 7 7 7 6 6 6 6 6 6 7 6 6 6 6
8 8 8 8 8 8 7 7 6 5 5 5 5 4 4 4 5 5 6 8 9 9 10 10 10 10 9 9 8 6 4 4 4 5 5 5 6 6 6 5 5 5 5 5 5 5 4 4 4 3 4 5 4 3 3 3 4 6 7 5 4 6 8 8 8 7 7 7 8 8 8 8 8 8 8 8 8 8 8 9 8 8 8 8 9 9 9 9 9 8 7 7 7 7 7 7 7 7 7 7 6 6 6
8 8 9 9 8 8 7 7 6 5 5 5 4 4 5 5 6 7 7 8 9 9 9 9 9 8 7 6 4 3 2 2 3 3 3 4 4 5 5 6 6 5 4 4 4 5 5 5 4 4 4 4 4 3 4 4 5 7 7 5 4 5 7 8 8 7 7 7 7 8 8 9 9 9 9 9 9 9 8 9 9 9 8 9 9 10 10 9 9 9 8 8 7 7 7 7 7 7 7 7 7 6 6
8 9 9 9 9 8 8 7 6 6 5 5 5 5 5 6 7 7 7 8 8 8 8 8 7 5 4 3 3 2 2 2 2 2 2 2 3 4 5 6 6 6 5 4 4 4 5 5 5 4 3 4 4 4 4 4 5 7 6 4 3 4 6 8 8 8 7 7 7 8 8 9 9 9 9 9 9 9 9 9 9 9 8 8 9 9 8 9 9 9 9 8 8 7 7 7 7 7 7 7 7 6 6
8 9 9 9 9 9 8 8 7 6 6 6 6 5 5 5 6 7 7 7 6 6 6 5 4 4 3 2 1 1 2 3 3 3 3 2 3 3 4 5 6 6 5 5 4 4 5 5 5 4 4 4 4 4 5 5 6 6 6 4 2 3 5 7 8 8 7 7 8 8 8 8 9 9 9 8 8 8 8 8 8 8 7 7 8 8 8 8 9 9 9 8 7 7 7 6 7 7 7 7 7 6 6
9 10 9 9 9 9 9 9 8 7 7 7 7 5 4 4 5 5 5 5 4 4 4 4 4 4 3 2 2 2 3 4 5 5 5 4 4 4 3 4 5 5 5 5 4 4 4 4 4 4 4 4 4 4 5 5 6 6 5 4 3 2 3 6 8 8 8 8 7 7 8 8 8 8 8 8 8 8 7 7 8 8 7 7 8 8 8 8 8 8 8 8 7 7 6 6 6 6 7 7 7 7 6
11 11 10 9 9 10 10 10 8 8 7 7 6 6 5 5 5 5 4 4 4 3 3 3 4 3 3 2 3 3 4 4 5 6 6 6 6 5 4 4 4 5 5 4 4 4 4 3 4 4 4 4 4 4 5 5 5 6 5 5 4 2 2 4 6 8 8 8 7 7 7 7 7 7 7 8 8 7 6 6 7 7 7 7 7 7 7 8 8 8 8 8 7 7 6 6 6 6 7 7 7 7 6
12 12 11 10 10 11 11 11 10 9 9 8 7 6 6 5 5 5 4 4 3 2 2 2 2 2 2 2 3 3 4 5 5 6 6 7 7 6 5 4 4 4 4 4 4 4 4 3 3 4 4 4 4 4 4 5 5 6 6 5 4 3 2 2 4 7 8 8 7 7 6 6 7 7 7 7 7 7 6 6 6 6 7 7 8 7 7 8 8 8 8 8 7 7 7 7 7 7 7 7 7 7 7
11 12 11 11 12 11 11 11 11 10 10 9 8 6 5 5 5 5 4 3 3 2 2 1 1 1 1 1 2 3 4 5 6 6 7 7 8 7 6 4 3 4 4 3 3 3 3 3 3 3 4 4 4 4 4 5 5 6 6 5 4 4 3 1 1 4 6 7 7 7 6 6 6 6 6 6 7 7 7 6 6 6 7 8 8 7 7 8 8 8 8 8 8 7 7 7 7 7 7 8 8 8 8
10 11 11 11 11 10 9 9 9 9 8 8 7 6 6 5 5 5 4 3 2 2 1 1 2 2 2 2 2 3 5 5 5 6 7 7 8 8 7 5 4 3 3 3 3 3 3 3 2 2 3 4 4 4 4 5 5 6 6 5 4 4 4 3 2 1 3 5 6 6 5 6 6 6 6 6 6 7 6 6 6 7 7 7 8 8 8 8 8 8 8 8 8 8 8 8 8 8 8 8 8 8 8
11 10 10 10 10 9 8 7 7 6 6 6 6 6 7 6 5 5 4 3 3 2 2 2 3 3 3 3 3 5 6 6 5 5 6 7 7 8 8 6 4 3 3 3 4 4 4 3 2 1 2 4 5 4 4 5 5 6 6 5 4 4 4 4 4 3 2 3 4 5 5 5 5 6 6 6 6 6 6 7 7 7 7 8 8 8 9 9 9 9 9 9 9 9 9 9 9 9 9 9 9 9 9
11 10 9 9 9 9 9 8 7 7 6 6 7 7 8 7 6 6 5 4 4 3 3 2 2 3 3 3 4 6 6 6 4 3 4 6 6 7 7 6 5 4 3 4 4 4 5 4 3 1 1 3 4 5 4 5 5 6 5 5 5 5 5 5 5 5 4 3 3 4 4 4 4 5 6 6 6 6 6 7 7 8 8 8 9 9 9 9 9 9 10 10 10 10 10 10 10 10 10 10 9 9 9
12 11 10 10 10 10 9 9 9 9 8 8 8 8 8 8 7 6 5 4 4 3 3 1 1 2 3 4 5 6 7 6 5 3 3 4 6 6 7 6 5 5 5 4 4 4 5 5 4 2 0 1 3 5 5 5 5 5 5 5 5 5 6 6 6 6 5 4 4 4 4 4 4 5 6 6 6 7 7 7 8 8 8 9 9 10 10 10 10 10 10 10 10 10 10 10 10 10 10 10 10 10 10
13 12 10 10 10 10 10 10 10 10 9 8 8 8 8 7 6 5 4 3 2 2 1 1 1 2 3 4 5 6 7 6 5 4 3 4 5 6 6 6 5 6 6 4 3 3 4 5 4 2 0 1 2 4 5 4 4 4 4 5 6 6 6 6 6 6 5 5 4 4 4 5 5 5 6 6 6 7 7 7 8 8 9 9 9 10 10 10 10 10 10 10 10 10 10 10 10 10 10 10 10 10 10
13 12 11 11 10 10 10 10 10 10 10 9 8 8 7 6 4 3 2 1 0 1 1 2 3 4 4 4 4 5 6 6 5 4 4 4 5 6 6 5 5 6 7 4 3 3 4 4 3 1 0 1 1 2 3 3 3 4 5 6 7 7 7 6 6 5 5 5 5 5 5 6 6 7 7 7 7 7 8 8 8 9 9 9 10 10 10 10 10 10 10 10 10 10 10 10 10 10 10 10 10 11 11
14 13 12 11 10 10 10 10 10 10 10 9 8 6 5 4 3 1 1 2 2 3 3 4 5 5 4 3 4 5 6 6 5 4 4 4 4 5 5 5 5 6 6 4 2 3 4 4 3 1 0 0 0 1 2 3 4 5 6 7 8 7 7 6 5 5 5 5 6 6 7 7 8 8 9 8 8 8 8 9 9 9 9 10 10 10 11 11 11 11 11 11 11 11 11 11 11 11 11 11 11 11 11
14 13 12 12 11 10 10 10 10 10 9 8 6 5 4 3 2 2 3 4 4 4 4 5 5 5 4 3 3 5 6 6 4 3 3 4 4 5 5 5 5 6 5 4 3 4 4 3 2 2 1 1 1 2 1 2 4 5 7 7 8 7 7 6 5 5 5 6 7 7 7 8 9 10 11 10 10 10 9 9 9 9 10 10 10 11 11 11 11 11 11 11 11 11 11 11 11 11 11 11 11 11 11
14 14 14 13 12 11 10 10 9 9 8 7 5 4 4 3 4 5 6 6 4 3 4 4 5 4 3 1 3 5 6 6 4 3 3 4 4 4 4 5 5 5 5 4 4 5 4 3 2 2 3 3 3 3 3 3 2 4 6 7 7 7 7 6 5 6 6 7 8 8 9 9 10 11 11 11 11 11 10 10 10 10 10 11 11 11 11 11 11 11 11 11 11 11 11 11 11 11 11 11 11 11 12
15 15 15 14 13 12 11 10 9 8 7 6 5 5 5 6 7 7 7 6 5 3 2 3 4 4 3 1 2 5 6 6 5 4 3 4 4 4 4 5 5 5 5 5 6 6 5 2 2 3 4 4 3 3 3 3 2 2 3 5 6 6 6 6 6 6 7 8 9 9 10 10 11 11 12 11 11 11 11 11 11 11 11 11 11 11 10 10 10 11 11 11 11 11 11 11 12 12 11 12 12 12 12
16 16 15 14 13 12 11 10 9 8 7 7 6 6 7 7 8 7 7 6 5 5 4 2 3 3 2 2 2 4 6 6 6 5 5 5 5 5 5 5 5 5 5 6 6 6 4 2 2 3 4 4 3 3 2 2 1 0 0 2 3 4 4 4 5 7 8 9 10 10 11 11 12 12 12 12 11 11 11 11 11 11 11 11 11 11 10 10 10 10 11 11 11 11 11 12 12 12 12 12 12 12 12
17 17 16 15 13 12 11 10 9 8 8 8 8 8 8 7 7 6 5 4 4 4 4 4 3 2 2 2 2 4 5 5 6 6 7 7 6 6 5 5 5 5 5 6 6 6 4 2 2 3 4 3 3 3 2 1 0 1 1 1 1 2 2 3 4 6 7 8 9 10 11 12 12 13 13 13 12 12 12 12 12 12 12 12 12 12 11 10 10 11 11 11 11 12 12 12 12 12 12 12 12 12 12
18 17 16 15 13 12 11 10 10 10 9 9 9 8 7 6 5 4 3 3 3 3 3 4 4 3 2 2 2 3 4 5 6 7 8 8 7 6 6 6 6 5 5 5 5 5 3 2 2 2 3 3 4 4 3 2 2 3 3 2 3 4 5 6 6 7 7 7 8 9 11 12 12 13 14 14 14 14 14 13 13 14 14 14 13 13 12 12 12 12 12 12 12 12 12 12 11 11 11 12 12 12 12
18 17 16 15 14 12 11 11 11 11 10 10 9 9 8 6 5 3 3 3 3 4 4 3 3 3 2 2 2 3 3 4 6 7 8 8 7 7 6 7 6 5 5 5 5 4 4 4 3 3 2 3 4 4 3 3 4 4 4 4 4 6 8 9 9 9 9 9 8 8 9 11 12 14 15 15 14 14 13 13 13 14 14 14 14 13 13 12 12 13 13 13 12 12 12 11 11 11 11 12 12 12 12
18 17 17 15 14 13 12 12 12 11 11 10 10 10 10 8 7 5 3 2 3 4 4 4 4 3 3 2 2 3 4 4 5 7 8 8 7 6 6 7 6 6 5 5 5 4 4 4 4 4 3 3 4 4 3 3 4 4 4 4 4 6 8 9 9 10 10 9 8 7 7 9 12 14 14 14 13 12 12 12 12 13 14 14 13 13 13 13 13 13 13 13 13 12 12 11 11 11 12 12 12 13 13
18 18 17 16 15 14 13 13 12 12 11 11 11 11 11 10 8 6 4 2 2 3 4 5 5 5 4 3 2 3 4 5 6 7 7 7 7 6 6 6 6 6 5 4 4 4 4 4 5 5 5 5 4 3 3 3 3 4 4 4 4 6 7 8 9 10 10 9 8 7 7 9 12 13 13 13 12 11 11 11 11 12 13 12 12 12 12 13 13 13 13 13 13 12 12 11 11 12 12 13 13 13 13
18 18 17 16 15 14 14 13 13 12 12 12 11 11 10 9 8 6 5 4 3 2 3 4 5 6 5 5 4 4 5 7 7 7 7 6 6 6 6 6 6 5 5 4 4 4 5 5 6 6 6 5 3 2 2 3 3 4 4 5 5 6 7 8 9 10 9 8 6 6 8 10 12 13 13 12 12 11 10 10 10 11 11 11 12 12 12 13 13 13 13 13 12 12 11 11 12 12 13 13 13 13 13
18 18 17 16 16 15 15 14 14 13 12 12 11 10 9 8 7 6 6 6 4 3 2 3 4 5 6 6 6 6 7 7 7 7 6 6 6 6 6 6 6 6 5 4 4 5 6 6 6 5 3 3 2 2 3 3 4 5 5 5 5 6 7 8 9 9 8 6 6 6 8 10 12 12 12 12 12 12 10 10 10 10 11 11 12 12 13 13 13 13 12 12 12 11 11 11 12 13 13 13 13 13 12
19 18 18 17 16 16 16 15 14 13 13 12 11 9 8 7 6 6 7 7 5 4 3 3 3 4 5 5 6 7 8 7 7 6 6 6 7 7 8 7 7 6 5 5 5 6 6 5 4 1 2 2 2 2 2 3 4 5 5 4 4 5 6 7 8 7 6 6 5 6 8 10 11 12 12 12 12 12 11 11 11 11 11 12 12 13 13 13 13 13 12 12 11 11 11 12 13 13 13 13 13 12 12
19 19 18 18 18 17 16 16 15 14 13 12 11 10 9 8 7 6 6 6 5 5 5 4 3 3 3 3 6 8 8 8 7 6 7 7 7 8 8 7 7 6 5 5 6 6 5 3 1 3 3 2 1 1 2 3 4 4 3 3 3 4 5 6 6 6 5 5 6 8 9 11 11 12 12 12 12 12 12 12 12 12 12 13 13 13 13 13 13 12 12 11 11 11 12 12 13 14 13 13 12 12 12
20 19 19 19 18 18 17 16 15 14 14 13 12 11 10 9 8 7 5 4 4 5 5 6 6 5 4 2 5 8 10 9 8 7 7 7 7 6 6 6 5 5 5 6 7 6 4 1 3 4 3 2 1 0 1 2 3 3 2 2 2 2 3 4 4 5 5 7 8 9 10 11 11 12 12 12 12 13 13 13 14 14 14 14 14 14 13 13 13 12 12 11 11 12 12 13 14 13 13 12 12 12 12
20 20 20 20 19 19 18 17 16 15 15 14 14 13 11 10 8 7 5 4 4 5 6 6 7 6 4 2 4 8 11 10 9 7 6 7 8 7 6 6 5 3 4 7 7 5 2 1 3 4 3 2 1 1 2 3 4 4 4 4 4 4 4 4 5 6 8 9 10 10 11 11 11 11 12 12 13 13 14 14 14 14 14 15 15 15 14 13 13 12 12 12 12 13 13 14 13 13 12 11 12 12 13
21 21 21 21 20 20 19 18 17 16 16 15 14 12 11 9 8 6 5 5 4 5 5 5 6 5 4 3 4 8 10 11 10 9 7 7 7 6 6 7 7 3 4 6 6 3 1 3 4 4 3 1 1 3 4 5 5 5 6 6 6 6 6 7 7 8 9 10 10 10 10 10 11 11 12 12 13 14 14 15 15 15 15 16 16 16 15 15 14 13 13 12 13 14 14 14 13 12 11 11 12 12 13
22 22 22 22 21 21 20 19 18 17 16 15 13 12 11 10 8 7 6 5 5 4 4 4 4 4 3 3 4 6 9 11 12 10 6 6 6 5 4 5 6 4 6 5 4 2 2 3 4 4 2 1 4 5 6 6 6 6 6 6 7 7 8 8 9 9 9 9 10 10 10 11 11 12 12 13 14 14 15 15 15 15 16 16 16 16 16 15 15 15 14 14 14 15 14 13 12 11 11 12 12 13 14
22 22 23 22 22 21 21 20 19 18 16 15 14 13 12 11 10 9 8 7 6 6 5 5 4 4 3 3 3 5 6 9 11 11 8 7 6 5 5 3 3 3 3 2 2 2 3 5 5 3 1 4 6 7 7 6 6 6 6 7 7 8 9 9 9 9 10 10 10 11 11 11 12 13 13 14 14 14 15 15 15 15 16 16 16 16 16 16 15 15 15 16 15 15 14 13 12 11 12 12 13 14 14
22 23 23 23 22 21 21 20 18 17 16 15 15 14 13 12 10 9 8 7 7 7 7 6 5 5 5 4 4 4 4 7 9 10 10 9 7 5 5 3 1 1 1 1 2 2 1 1 1 2 6 8 8 6 6 6 6 6 6 7 7 8 9 10 11 11 11 11 11 12 12 13 13 14 14 14 14 14 14 15 15 16 17 16 16 16 16 16 16 16 16 16 15 14 13 12 12 12 12 13 14 14 14
22 23 23 23 22 22 21 20 18 17 16 15 15 15 13 12 10 9 7 7 6 6 7 7 7 6 6 6 5 4 3 5 7 9 9 9 7 4 3 2 1 1 1 1 1 1 2 4 7 11 13 9 6 5 4 5 6 6 6 7 8 9 10 11 12 12 11 12 12 12 13 14 14 14 14 14 14 14 15 15 16 17 17 16 15 15 16 16 17 16 16 15 14 13 13 12 12 12 13 14 14 14 14
23 23 23 23 22 22 21 20 19 18 16 15 15 15 14 12 11 9 8 7 6 6 7 7 8 8 7 6 5 4 4 3 5 7 8 9 8 5 2 0 1 3 4 3 2 0 1 3 7 10 9 7 6 5 5 7 8 8 8 9 10 11 12 12 12 12 12 12 12 13 13 14 15 15 15 15 15 15 16 16 17 17 16 15 15 15 16 17 17 17 15 14 13 13 13 13 13 13 13 13 13 13 14
23 23 23 23 23 22 22 21 20 18 17 16 16 15 14 13 12 11 10 9 8 7 7 7 8 8 8 7 6 5 5 4 4 5 6 8 8 8 5 3 2 1 2 2 1 1 1 6 6 3 3 4 6 8 9 10 10 10 10 11 11 12 12 12 12 11 11 12 12 13 14 15 16 16 16 16 16 16 17 17 17 17 16 15 15 15 17 18 18 17 15 14 13 14 14 14 14 14 13 13 12 13 14
24 24 24 24 23 23 22 21 20 19 18 17 17 16 15 14 13 12 11 10 8 7 7 7 8 9 9 8 6 5 5 6 4 4 5 6 7 7 6 5 3 2 2 2 1 1 2 6 4 1 3 5 7 8 10 11 11 11 11 11 11 12 12 12 12 12 12 13 15 16 16 17 17 17 16 16 17 17 17 17 17 17 16 16 16 17 18 18 18 17 15 14 14 14 15 15 14 13 12 12 12 13 15
25 25 24 24 24 23 23 22 21 20 19 18 17 17 16 15 13 12 11 10 9 8 7 7 8 9 9 8 7 6 6 7 6 4 3 4 5 6 6 5 4 3 3 1 1 0 1 3 2 0 3 5 7 7 8 10 11 11 11 11 11 12 12 13 13 14 15 16 17 17 17 17 17 16 17 17 17 18 18 18 17 17 17 17 18 18 19 19 18 17 15 14 15 15 15 14 13 12 11 11 13 15 17
25 25 25 25 24 23 23 22 20 19 19 18 17 17 16 15 13 12 12 10 9 8 7 7 8 9 9 8 7 7 7 6 5 4 3 3 3 4 4 4 3 2 1 1 1 1 0 1 1 1 1 3 5 7 8 8 10 11 11 11 12 12 13 14 14 15 16 16 17 17 17 16 16 16 16 17 17 18 18 18 18 18 19 19 19 19 19 19 18 16 15 15 15 15 14 13 12 11 11 13 14 17 19
25 25 25 25 24 23 22 21 20 19 19 18 18 17 16 15 14 13 12 11 9 8 7 8 8 8 9 8 8 7 7 6 4 4 4 4 3 3 3 2 1 0 1 2 2 3 3 3 3 1 1 1 2 5 6 8 9 10 11 11 12 13 14 15 16 16 16 17 16 16 16 17 16 16 17 17 18 18 18 19 19 20 20 20 20 20 20 19 17 16 15 15 15 14 13 12 12 12 13 14 16 19 21
25 26 26 25 24 23 23 22 21 20 19 18 18 17 16 15 14 13 13 12 10 8 7 7 8 8 8 8 8 8 7 6 5 4 4 3 3 3 2 1 0 1 1 2 3 4 5 6 6 6 4 2 1 2 3 6 8 9 10 11 13 14 16 16 16 16 16 16 16 16 17 17 17 17 17 18 18 19 20 20 21 21 21 21 21 20 19 18 17 16 15 15 14 14 12 12 13 14 15 16 18 20 22
Wind_Direction
109 101 93 94 101 109 113 114 109 101 92 84 76 70 70 68 68 70 71 69 66 64 63 61 59 58 58 59 58 55 52 51 50 49 49 44 29 18 20 27 35 44 54 59 53 41 32 33 37 38 35 43 49 51 49 38 36 49 96 114 99 39 17 12 10 9 11 18 28 35 29 24 19 16 13 11 8 4 0 355 345 332 315 300 287 282 282 286 292 297 302 311 322 328 332 318 286 258 274 295 299 300 305
107 101 97 100 106 111 114 112 107 99 92 86 81 78 77 73 72 74 74 71 68 65 64 61 60 60 58 56 55 54 53 51 49 47 47 38 23 17 25 36 45 52 56 54 45 35 30 33 37 38 35 40 44 43 41 32 32 50 111 111 67 27 17 14 11 11 14 20 26 27 16 10 7 5 1 356 352 349 347 346 344 341 335 327 317 306 294 288 290 294 299 306 317 327 334 328 314 283 271 269 271 276 285
107 103 103 106 110 112 111 109 103 97 91 87 85 84 83 82 82 80 76 70 65 63 62 59 59 59 58 54 53 55 54 53 51 49 46 40 27 21 29 41 48 51 50 45 36 29 25 28 31 30 24 31 41 44 40 30 31 61 104 91 54 28 20 16 13 13 15 19 21 18 9 1 358 356 352 346 341 339 337 336 335 336 335 329 326 324 319 312 306 301 297 300 311 322 326 316 306 295 276 259 255 255 252
107 106 107 110 111 110 108 104 100 95 90 86 83 81 81 81 81 79 76 71 66 62 61 57 53 54 59 54 53 54 54 55 54 52 48 44 35 31 36 44 48 48 45 38 31 25 22 26 28 26 21 32 45 47 42 31 36 67 89 72 43 26 19 16 14 14 14 15 13 8 1 355 350 348 347 343 339 336 335 329 327 329 330 326 322 321 322 323 324 320 308 300 304 310 311 303 308 316 314 297 277 260 244
108 108 109 111 111 108 105 102 98 94 91 87 83 79 77 76 75 74 73 71 68 66 63 58 53 52 57 55 53 52 52 53 54 53 50 47 42 42 45 48 49 46 40 34 29 25 25 30 33 32 31 40 47 46 42 33 44 67 72 55 33 21 16 14 13 13 13 10 6 1 353 349 344 342 344 342 340 337 331 327 327 328 327 322 315 308 304 308 312 312 308 301 298 297 292 294 307 322 329 324 316 303 283
111 112 114 115 115 112 107 102 99 96 93 88 84 80 77 75 73 72 71 69 67 64 63 61 56 54 53 53 53 52 52 52 52 52 51 50 50 51 52 51 48 43 36 30 28 29 32 38 41 39 36 38 43 46 45 36 45 59 55 38 23 17 14 12 12 13 13 4 358 354 349 346 341 340 342 342 341 334 326 323 323 322 317 311 304 297 289 279 273 274 279 285 283 280 285 292 299 304 304 304 309 312 313
114 117 120 121 121 118 112 107 103 99 96 92 88 85 80 78 77 76 73 69 64 62 61 60 60 59 58 56 56 56 56 56 57 57 57 57 57 56 54 50 45 38 32 28 31 36 42 46 45 41 35 35 40 45 44 37 40 46 38 25 16 12 12 12 13 14 12 4 357 353 349 346 344 342 343 343 338 330 323 320 316 310 304 306 307 306 302 291 275 263 259 267 267 271 286 292 294 296 294 294 295 298 302
118 120 124 126 125 121 115 109 104 101 98 97 95 90 85 80 79 79 77 72 68 63 63 65 65 64 62 60 58 58 59 60 61 61 61 60 59 56 52 47 41 34 30 32 38 47 51 51 46 40 33 34 39 44 42 34 32 31 25 16 12 11 13 15 16 14 9 4 357 353 351 349 347 345 343 342 336 330 326 323 322 319 313 327 339 335 319 313 305 293 280 279 281 284 287 283 288 296 300 298 297 294 293
121 123 127 129 129 124 116 108 103 101 98 99 98 93 87 82 79 79 79 76 73 72 71 71 70 67 63 58 55 54 55 57 58 59 59 57 55 52 47 42 36 33 34 41 49 54 54 50 44 38 33 32 38 43 41 31 23 17 12 9 8 11 17 20 18 12 3 357 353 352 350 349 347 343 340 338 336 333 329 325 325 328 334 344 344 333 320 321 324 326 324 316 303 293 285 280 282 290 297 300 301 300 296
125 125 128 131 131 126 117 112 110 109 105 103 99 95 89 87 85 83 81 81 80 79 77 74 69 63 55 49 47 47 49 51 54 54 54 52 50 46 42 37 35 36 42 51 56 55 51 46 41 37 33 33 37 41 41 30 13 2 2 4 6 12 21 22 14 5 359 356 354 352 350 349 347 343 337 336 334 331 325 324 331 341 349 350 340 326 321 324 330 335 336 330 318 306 296 290 289 288 288 298 308 311 307
128 126 127 128 129 127 123 122 119 117 113 108 104 100 96 94 93 91 88 86 85 83 77 69 61 53 47 46 48 51 53 55 55 54 52 49 46 42 38 36 37 42 51 56 55 51 45 41 38 37 35 35 37 39 39 22 356 351 359 3 7 15 25 17 8 1 359 358 356 354 352 351 348 343 339 339 333 325 323 329 340 351 356 347 337 334 334 336 339 339 336 332 326 318 312 309 304 301 305 327 335 330 326
130 124 123 125 126 126 125 124 122 119 114 110 106 102 97 95 94 94 93 92 88 80 70 59 52 48 49 54 59 62 63 62 60 57 53 49 45 41 37 37 41 49 56 55 49 43 39 37 36 35 35 36 36 35 29 357 337 351 0 3 7 16 23 13 5 1 0 359 359 359 358 356 353 351 352 357 351 340 338 346 353 357 353 347 345 347 347 348 347 344 342 340 335 329 320 318 319 329 343 347 341 334 332
133 126 123 124 126 127 126 124 122 119 114 109 104 99 95 95 96 97 95 92 84 73 61 52 49 50 56 63 67 69 68 65 61 57 53 48 43 39 37 38 44 52 55 48 40 36 34 33 33 34 34 34 32 27 5 320 326 351 1 2 6 14 19 10 4 2 2 2 4 7 8 8 7 10 16 17 14 6 1 2 1 358 0 359 357 358 1 1 359 356 354 352 345 337 332 337 347 352 353 341 331 326 325
138 131 126 127 129 130 129 126 123 119 115 110 105 100 97 97 98 97 94 87 76 64 55 51 50 53 60 67 70 70 66 61 56 51 47 43 39 37 37 40 47 52 51 41 34 30 29 26 27 31 31 26 22 10 333 301 320 349 359 359 4 12 15 8 4 3 3 7 12 18 22 24 26 30 33 32 31 27 18 7 358 356 3 6 8 11 15 17 15 12 11 8 6 1 359 1 4 3 351 337 332 331 329
142 133 130 129 131 131 130 127 123 119 114 110 107 104 102 100 99 95 88 77 66 57 52 51 52 56 61 66 67 64 57 50 44 41 38 36 34 35 38 42 47 49 45 35 28 24 23 20 23 27 26 18 9 342 305 297 320 345 355 356 2 11 13 8 5 4 6 13 20 28 32 35 37 37 37 36 34 30 25 9 356 354 6 14 19 23 28 29 30 28 27 26 24 22 21 18 11 2 357 351 349 347 345
142 135 132 132 132 132 130 127 122 118 113 110 108 106 105 102 97 90 79 67 58 53 51 53 56 60 63 64 63 56 45 37 32 30 28 27 28 33 39 43 44 42 37 28 21 19 20 17 19 23 23 11 355 316 296 298 319 341 350 353 2 12 13 10 7 6 9 18 28 35 39 42 41 38 36 34 34 33 30 20 8 7 20 29 32 33 35 37 39 40 42 42 40 37 36 29 17 6 6 9 10 9 6
143 138 135 134 134 133 130 127 123 118 114 110 108 106 104 99 92 81 70 61 55 52 53 57 62 65 64 62 58 50 38 29 23 20 20 20 22 28 37 39 37 32 28 18 13 14 17 14 14 17 17 359 341 311 296 301 320 339 347 352 3 14 15 12 10 10 14 22 31 38 42 42 40 38 36 35 36 37 38 34 23 23 40 42 40 38 36 36 39 44 50 50 51 51 49 41 29 19 17 20 24 28 25
146 143 140 138 137 136 134 131 127 122 117 114 110 107 102 93 81 72 68 63 58 57 59 65 68 67 63 58 53 47 38 26 17 14 15 16 17 22 30 34 30 22 18 9 4 4 5 5 6 10 9 347 332 312 299 303 323 340 346 351 5 17 19 17 15 16 22 28 33 38 41 41 40 40 41 41 42 43 44 42 36 37 47 43 38 34 33 31 33 39 50 51 51 53 53 45 36 28 27 28 31 34 35
150 149 146 145 144 142 140 138 133 127 123 119 115 110 100 86 75 71 73 69 64 63 67 69 68 64 58 52 48 47 44 33 22 17 16 13 12 14 18 20 18 13 11 4 358 353 349 350 354 3 5 344 330 310 299 307 330 343 345 350 8 24 24 22 21 23 28 32 36 40 41 42 43 45 47 49 50 50 51 53 54 55 54 48 40 39 42 41 42 45 49 48 46 47 48 46 41 38 35 35 36 35 35
156 157 156 154 153 151 149 146 140 131 124 122 121 117 106 87 77 75 77 72 67 66 69 69 64 57 53 51 50 51 54 57 46 35 27 19 12 5 0 357 1 7 10 4 357 349 343 344 351 1 4 340 323 302 292 309 334 343 342 347 9 30 30 27 27 30 33 36 38 42 44 46 48 51 53 54 56 57 58 59 60 60 59 55 53 53 55 53 54 53 48 48 46 45 46 45 44 42 40 39 38 35 33
163 166 166 165 163 161 159 155 147 136 127 125 127 124 109 89 78 75 75 70 66 65 67 67 62 57 55 59 64 65 63 70 62 51 38 27 11 355 349 348 355 3 7 2 354 347 342 345 353 4 4 330 308 292 287 307 331 339 339 342 8 35 35 32 31 34 38 39 42 44 46 49 51 54 55 57 58 59 60 59 59 58 57 55 54 54 53 53 52 51 49 48 45 42 42 41 38 37 36 35 33 31 28
171 172 173 173 172 170 167 161 151 138 126 123 125 120 104 87 77 73 72 67 63 63 66 68 70 72 74 77 78 69 43 26 21 26 27 19 6 356 353 352 353 356 358 352 348 343 342 347 357 6 3 323 297 284 285 307 329 337 336 336 0 37 40 35 35 37 40 40 42 45 47 50 52 53 54 55 56 57 57 56 54 52 51 47 45 45 45 45 45 45 46 42 39 37 35 32 30 27 26 24 23 22 20
176 175 175 177 177 174 168 158 145 129 116 113 113 109 96 81 74 70 70 69 68 69 75 79 83 84 83 79 64 26 2 352 347 345 346 350 353 357 359 356 353 351 351 347 343 341 344 351 1 6 353 314 291 283 288 309 328 337 337 333 343 29 43 39 38 39 41 42 43 45 46 48 50 50 51 51 51 52 52 51 47 44 42 38 36 36 35 36 38 38 37 34 31 29 26 22 19 16 14 13 12 11 9
179 177 175 176 176 172 164 155 140 123 111 108 110 113 110 95 84 81 83 91 93 92 92 88 83 78 70 45 3 345 348 351 349 347 347 346 345 351 3 2 356 352 354 350 345 345 348 358 7 4 339 306 289 287 292 311 330 340 341 335 333 4 45 45 42 41 41 42 43 44 44 46 46 46 47 46 45 45 45 42 38 34 32 31 30 29 26 24 25 27 27 26 22 18 15 11 8 5 3 1 1 359 357
182 180 178 175 171 166 160 153 142 127 117 114 122 135 135 125 115 111 113 118 119 113 103 91 86 82 70 37 4 350 354 356 355 352 351 352 354 358 9 10 2 356 358 355 349 346 348 2 15 7 337 306 293 293 298 315 331 342 344 339 332 336 34 54 48 44 43 43 43 43 42 43 42 42 42 41 39 38 35 32 28 24 21 19 20 20 18 16 13 12 14 14 12 8 3 358 355 352 351 350 349 348 345
183 182 177 169 162 156 151 146 140 134 132 132 137 141 138 133 130 128 128 129 126 118 110 103 103 100 82 51 17 358 356 357 355 352 351 353 356 2 11 16 10 1 0 357 353 347 346 2 22 16 346 314 299 298 303 317 331 340 344 342 335 329 339 52 55 48 44 43 43 42 41 40 39 38 37 35 32 29 25 21 14 8 7 10 11 10 8 6 4 2 1 0 359 357 354 349 345 341 338 336 337 337 334
181 177 168 159 152 147 143 142 143 144 145 147 147 141 129 127 129 133 134 134 128 118 117 122 115 75 59 48 11 352 353 356 354 350 350 350 355 2 11 20 17 5 359 354 350 345 342 357 21 22 358 326 308 303 307 315 327 336 342 341 337 329 324 326 49 53 44 41 40 39 39 37 33 29 27 27 25 22 18 13 5 1 359 359 359 357 354 354 352 351 349 348 347 345 342 338 335 332 327 327 327 328 326
174 166 158 152 149 146 144 147 151 155 157 159 155 142 126 124 128 134 134 129 117 105 79 351 339 348 358 357 342 343 352 359 358 352 349 350 354 1 10 18 20 8 355 347 339 331 329 338 5 24 10 339 319 306 309 316 326 334 339 340 336 329 322 315 308 355 38 36 33 32 32 31 27 23 21 18 15 13 8 3 357 352 346 344 344 346 344 340 337 338 342 341 339 337 333 330 328 325 319 318 317 316 317
167 160 153 150 148 147 146 150 155 158 158 159 152 140 131 129 131 132 128 120 109 92 51 12 1 2 9 0 347 347 356 5 7 358 348 348 353 359 7 14 15 6 350 339 328 318 316 321 328 6 23 347 326 313 315 322 328 334 339 341 338 329 321 316 309 303 314 7 19 19 18 20 21 20 15 6 3 1 358 356 351 345 340 341 340 338 336 335 333 333 332 331 329 327 325 324 321 317 314 312 312 311 311
163 159 152 148 146 144 143 145 146 145 144 147 146 142 139 138 139 138 135 131 124 114 94 55 24 12 7 355 349 352 0 7 14 9 349 344 348 355 1 6 5 355 343 336 327 319 316 323 323 319 27 353 332 320 320 324 329 334 341 346 344 334 325 318 314 308 305 318 346 0 2 2 5 9 9 7 1 354 350 349 346 342 338 337 337 335 332 328 327 326 324 321 319 317 317 316 315 313 312 312 311 310 309
160 158 152 145 142 142 146 149 148 144 142 148 151 151 152 155 158 160 160 159 156 147 139 125 39 2 353 348 349 354 1 9 18 21 358 341 340 347 355 357 351 344 342 342 335 324 317 324 329 331 33 14 338 324 317 322 327 333 341 349 348 340 330 321 317 315 312 314 325 340 346 346 347 355 2 0 356 350 343 339 339 339 337 333 331 329 326 323 322 321 320 318 317 315 315 314 314 313 313 311 310 309 309
158 157 153 146 142 145 153 156 153 148 150 157 162 165 169 174 178 182 189 194 196 195 207 260 329 345 350 352 355 0 4 11 19 26 14 345 338 340 348 347 340 336 343 351 346 326 313 319 330 341 14 49 351 328 317 320 327 334 341 347 348 343 335 325 320 318 319 321 327 335 340 340 338 341 350 351 350 345 338 336 336 335 333 329 328 326 324 323 322 321 320 319 318 317 316 315 314 313 312 312 312 311 310
156 155 153 148 146 150 159 161 157 156 161 169 175 179 182 185 188 191 191 189 119 25 12 7 7 9 10 6 4 4 8 14 19 22 12 350 336 335 341 338 331 331 341 351 344 315 304 311 319 326 346 56 26 350 334 332 336 340 343 346 347 344 337 329 322 322 325 332 337 340 342 342 341 339 339 342 342 341 338 335 333 332 331 328 327 326 325 323 322 321 320 319 318 317 316 315 314 313 313 312 311 310 310
154 155 155 151 151 155 161 162 162 165 172 179 184 185 181 178 173 156 107 72 52 39 31 27 29 32 32 16 1 359 6 15 21 16 359 344 333 331 335 332 326 326 336 340 322 294 291 299 302 290 249 149 74 352 352 350 349 348 346 346 347 346 341 332 324 323 328 336 342 344 346 347 346 344 340 337 336 335 334 332 330 330 330 329 327 326 324 323 322 321 320 318 318 317 316 315 315 315 313 313 312 311 310
154 156 156 153 152 155 161 165 170 175 180 183 183 178 166 154 129 95 72 62 52 37 27 25 33 43 49 18 345 346 357 12 21 15 347 333 327 328 331 328 323 322 326 320 297 282 283 287 283 266 235 221 225 232 254 330 348 348 345 345 347 348 346 338 329 324 327 333 337 340 343 346 347 346 342 337 333 330 329 328 328 328 329 328 326 325 324 322 322 321 320 319 319 318 316 315 315 314 313 312 312 311 310
154 155 155 156 156 157 163 170 177 181 182 180 173 161 146 124 105 93 88 84 77 56 31 23 31 48 64 22 333 336 347 3 15 13 342 326 322 324 327 323 318 317 315 301 290 289 292 281 268 257 237 226 228 238 249 261 302 339 343 344 347 350 350 346 339 332 331 332 333 333 335 340 343 343 341 337 332 328 326 325 324 324 325 324 324 324 323 322 321 320 320 319 319 318 316 315 315 314 312 311 311 311 311
154 155 157 160 161 162 167 175 181 183 179 172 160 146 131 120 115 116 118 122 118 101 61 28 24 37 65 38 339 335 342 355 5 4 343 328 324 325 323 317 314 312 307 290 289 299 309 293 262 255 244 238 239 249 262 268 273 315 345 345 348 353 355 352 346 341 339 337 334 332 331 332 336 338 339 337 334 330 327 325 324 322 323 322 322 323 322 322 322 322 321 320 319 318 317 316 315 313 312 312 311 312 312
156 157 161 163 165 167 171 177 181 180 173 161 148 138 134 134 138 142 146 145 139 131 120 89 42 31 48 40 356 343 343 352 356 351 340 333 330 326 322 315 313 312 305 289 292 304 320 310 266 260 255 251 246 243 254 274 287 292 346 349 352 357 358 352 347 345 343 340 336 331 327 327 330 334 338 338 337 336 335 332 330 329 328 329 329 329 327 327 326 325 324 322 321 320 319 318 316 315 314 313 313 314 314
163 164 164 165 166 170 175 178 177 173 167 156 147 143 147 150 153 157 160 154 144 138 137 125 101 65 37 32 14 357 348 347 345 340 337 334 331 327 321 317 316 314 306 293 294 305 318 301 265 264 265 255 236 220 223 221 222 215 216 240 282 289 284 300 321 333 338 337 333 327 323 323 327 333 339 343 344 345 343 341 337 335 335 336 337 338 337 334 332 330 328 326 323 322 320 319 318 317 316 316 316 316 314
169 168 166 165 168 173 177 176 171 167 164 158 152 150 150 149 150 151 151 135 115 111 121 130 124 103 61 32 19 3 347 340 336 333 332 332 330 326 323 319 318 317 309 297 296 298 296 267 248 257 268 253 234 223 227 232 240 241 242 250 262 266 266 274 286 301 314 320 321 319 318 321 328 337 344 348 350 349 346 342 339 337 337 338 340 340 339 336 334 332 330 328 326 324 323 322 321 320 319 319 318 317 316
171 170 168 168 171 175 175 171 167 166 166 162 155 147 138 131 127 127 127 110 95 88 89 104 118 113 83 45 16 357 341 332 329 328 327 328 328 326 323 319 318 316 309 297 294 290 281 260 242 235 250 251 245 243 251 257 262 266 270 271 272 274 274 279 288 297 306 310 311 311 313 321 331 341 348 351 350 347 341 336 333 333 334 336 337 337 335 333 331 330 329 328 327 326 325 324 323 323 322 321 320 319 317
172 171 171 171 173 174 172 167 167 168 167 162 153 144 136 132 131 133 128 100 77 73 69 68 79 96 95 70 29 357 339 332 328 327 325 326 327 326 321 315 312 310 305 298 293 287 275 262 247 235 233 248 258 264 271 269 273 283 295 292 282 279 282 287 296 307 315 319 320 316 316 325 336 344 349 350 347 341 336 331 328 329 331 332 332 331 330 328 328 327 327 327 326 326 326 326 325 325 325 324 322 321 319
172 171 173 173 173 172 169 167 167 168 166 160 153 148 145 144 145 146 137 105 78 67 56 53 59 71 81 75 47 7 346 338 334 330 327 327 327 324 316 309 305 303 300 296 290 278 264 260 258 251 242 243 254 268 274 269 273 288 303 301 285 278 283 292 305 317 325 329 332 331 327 331 338 343 346 346 343 339 336 332 329 328 329 329 328 327 326 325 325 325 325 325 326 326 327 327 327 328 327 326 324 323 321
170 172 174 175 173 170 168 167 168 167 164 158 155 153 151 151 150 145 132 117 104 82 54 43 47 55 60 62 47 17 357 346 340 336 333 331 329 323 314 306 301 298 294 289 276 260 254 264 272 270 256 243 236 240 251 255 261 275 292 294 282 272 278 292 308 320 328 334 337 333 328 330 335 339 341 339 337 336 335 332 329 328 328 327 326 325 324 324 323 323 323 323 324 325 326 327 328 328 328 327 326 325 324
168 171 173 174 171 169 167 168 168 166 161 156 153 151 147 144 140 134 129 126 123 110 71 45 42 45 47 48 38 21 6 354 345 341 340 339 334 326 316 310 304 297 287 277 259 251 257 276 285 281 256 222 210 220 236 244 255 271 291 297 284 271 277 294 310 323 331 336 333 324 319 325 330 333 332 330 330 331 331 327 324 324 326 327 326 325 325 324 323 323 322 323 323 324 325 327 328 329 329 329 328 328 328
168 170 171 170 169 168 168 169 168 163 157 151 146 140 134 130 127 127 130 132 133 127 106 78 56 46 42 38 29 22 14 4 355 352 353 348 338 327 318 313 306 296 281 262 246 248 265 292 302 265 156 163 182 213 238 249 263 282 303 308 292 279 284 300 314 324 331 329 319 310 312 320 324 325 323 322 324 326 325 322 321 322 325 326 326 325 325 324 323 323 322 322 322 323 325 327 328 329 329 330 330 331 331
170 170 168 168 167 168 169 168 165 158 149 143 137 133 129 127 128 131 136 138 137 133 127 122 108 87 67 41 25 22 22 18 12 8 4 353 339 328 321 314 305 290 272 248 236 244 271 306 56 123 135 146 164 215 258 269 283 300 316 316 297 290 300 310 318 323 323 312 303 302 308 315 318 318 317 317 319 321 320 320 321 323 325 325 325 325 325 325 324 323 322 321 321 322 324 325 327 328 329 330 331 332 333
169 169 167 167 168 168 167 165 158 150 143 141 139 138 137 138 140 143 146 141 132 126 127 131 129 123 114 72 28 27 30 29 27 19 4 351 342 337 332 323 311 289 258 233 228 238 271 327 113 129 138 142 144 250 285 286 293 300 298 279 268 277 298 308 312 309 302 295 294 298 305 310 312 312 312 313 314 315 316 317 320 323 324 323 323 324 324 324 323 322 321 320 320 320 322 324 325 326 327 329 330 332 333
167 166 166 167 167 166 163 159 153 148 147 148 148 147 148 149 149 148 143 130 118 114 116 125 130 134 133 102 36 30 33 33 34 31 16 3 356 355 359 1 348 311 231 214 219 233 262 124 129 139 149 154 189 278 281 281 282 278 272 264 258 255 261 272 281 286 287 288 290 295 300 305 307 308 308 309 309 311 312 315 318 320 322 322 322 322 321 320 319 319 318 317 317 318 320 321 323 324 326 327 330 331 332
166 165 164 164 164 163 161 158 155 154 155 155 154 152 151 147 142 134 124 112 106 107 110 114 124 136 142 113 51 35 32 31 32 33 33 23 7 352 350 352 355 6 163 183 199 216 190 137 144 153 165 188 276 292 289 287 282 278 274 269 264 263 268 278 285 287 286 286 287 291 296 300 303 304 304 304 305 306 309 312 315 317 318 320 321 320 319 317 316 315 314 314 315 316 317 319 321 322 324 326 328 330 331
168 166 164 163 163 162 162 161 160 160 160 157 153 149 144 138 131 125 118 116 119 127 132 126 125 130 136 110 67 41 32 30 30 31 29 15 0 342 313 311 334 14 107 141 161 161 138 146 152 161 178 267 299 302 297 293 289 285 278 273 271 273 282 292 298 297 291 286 286 289 293 297 299 301 301 301 301 303 306 308 311 313 315 317 318 318 317 316 314 312 311 311 312 314 316 317 318 320 321 324 326 328 330
169 167 165 163 162 163 165 165 164 163 160 156 150 144 140 136 134 134 134 138 146 153 154 149 145 140 131 109 78 50 31 28 31 34 34 12 1 348 319 318 343 357 356 54 89 130 155 166 164 165 253 304 308 305 298 294 292 290 283 278 277 282 291 300 304 302 295 289 287 288 292 296 298 300 299 299 299 300 302 304 306 309 311 314 315 315 315 314 313 311 309 309 311 313 315 315 316 317 319 321 323 325 327
167 166 165 164 164 165 166 165 165 163 160 155 148 141 139 138 138 139 142 145 150 154 154 148 150 153 147 128 102 74 38 27 29 34 36 26 14 5 6 29 42 334 303 8 0 349 29 74 74 332 320 324 324 316 303 301 303 300 294 287 287 291 299 304 305 302 296 291 289 291 294 298 300 301 300 298 298 298 299 300 302 305 308 310 311 311 310 310 310 309 308 309 311 313 312 311 312 314 316 318 320 322 325
166 166 167 167 166 165 165 164 162 160 158 153 146 140 138 137 137 137 138 139 142 146 148 147 145 146 146 138 125 104 68 30 24 29 37 38 36 29 25 27 324 266 266 107 83 347 326 352 343 332 327 341 350 345 342 342 337 328 317 308 303 304 305 306 305 302 296 292 292 295 298 302 304 304 302 300 298 296 296 297 300 303 305 306 305 305 306 307 308 308 307 307 308 307 306 305 307 309 312 314 316 318 321
166 167 169 169 167 164 162 161 159 156 154 151 145 140 138 138 138 139 141 141 144 148 150 151 149 143 132 128 127 124 109 60 27 27 37 46 52 58 92 134 319 340 354 35 70 166 277 326 330 328 331 355 5 354 351 347 342 336 329 322 316 312 310 309 307 304 300 299 300 302 305 307 307 306 304 302 299 297 296 297 299 301 302 301 300 300 301 304 307 307 306 304 302 300 298 299 302 305 307 309 311 314 318
167 168 170 169 166 163 161 160 157 155 153 150 146 143 143 143 145 146 148 150 152 155 155 151 150 146 138 125 120 125 125 99 51 29 36 50 59 64 71 83 83 51 22 11 344 261 258 347 346 328 325 358 354 342 335 329 326 324 322 320 318 317 315 314 313 311 309 308 308 308 309 309 308 306 304 303 301 300 299 300 301 301 300 298 296 296 298 302 305 306 304 300 297 295 295 297 300 303 304 305 308 312 317
168 169 168 167 165 163 161 160 158 156 155 152 149 147 148 149 149 150 152 153 155 156 156 148 143 140 140 129 120 118 124 115 90 47 37 49 58 64 69 66 83 120 120 162 206 256 325 0 10 354 309 325 330 330 327 323 321 320 319 318 318 317 317 316 315 314 312 311 310 309 308 307 305 304 303 302 302 301 302 302 302 301 299 297 295 295 297 301 303 304 302 298 295 294 296 298 300 301 302 304 308 312 316
169 168 167 166 165 163 162 162 160 158 156 153 150 149 150 150 150 150 150 150 152 155 156 147 138 133 132 129 123 115 113 114 108 89 61 55 56 58 62 69 73 71 65 125 175 194 3 33 56 206 303 313 315 318 323 324 323 322 320 319 318 317 315 314 313 311 310 310 309 308 307 305 304 303 302 302 301 301 302 301 301 300 299 297 297 296 297 299 300 301 299 295 293 294 296 299 300 300 302 305 308 312 315
169 168 166 165 164 164 163 162 161 159 156 153 150 149 149 149 150 150 149 147 149 154 155 146 137 133 133 133 129 120 111 108 109 113 115 102 77 59 55 65 69 67 62 7 296 275 251 124 156 226 321 316 313 317 323 325 324 322 320 318 317 316 315 314 313 312 311 310 310 309 307 306 304 303 302 301 301 300 300 299 298 298 297 296 296 296 296 296 297 296 295 292 291 292 295 296 297 298 301 304 309 312 315
168 166 164 164 164 164 163 162 160 157 155 152 150 149 148 149 149 149 147 147 150 155 154 144 137 137 139 140 136 126 115 113 116 123 127 125 109 84 63 63 57 339 283 264 258 257 255 231 218 204 137 260 299 311 316 316 316 316 315 315 315 315 313 313 312 312 312 311 310 309 308 307 306 304 303 301 300 299 298 297 296 295 295 294 294 293 292 292 292 292 291 290 289 290 291 292 292 294 299 304 309 312 315
167 166 164 163 164 163 162 160 158 156 155 152 150 148 147 147 148 147 147 148 152 154 150 141 136 134 137 142 140 133 123 121 125 127 122 110 101 98 94 79 44 306 283 275 265 258 253 253 254 250 237 211 235 284 295 306 313 315 312 312 313 313 311 310 309 309 308 308 307 307 307 307 306 305 303 301 300 299 298 296 295 295 294 293 292 290 289 288 288 287 287 287 287 286 286 288 290 293 298 304 308 311 314